When you browse on this site, cookies collect data to enhance your experience and personalize the content and advertising you see.
Visit our Privacy Policy to learn more. By continuing to use the site, you agree to this use of cookies and data.
  • In Hungary
  • List of Countries
  • For 7 days
  • Water Temperature
  • Satellite Maps
  • Weather Map
  • News
  • Weather Widgets
  • user-avatar
    Login

    Hourly Weather Novopavlovka

    Today, 14 December, Friday

    Time Temperature Precipitation Wind Pressure Humidity
    00:00 -10°C° 0 mm 8 mps 748 mmHg 83%
    01:00 -10°C° 0 mm 8 mps 748 mmHg 84%
    02:00 -10°C° 0.4 mm 8 mps 748 mmHg 86%
    03:00 -10°C° 0.4 mm 8 mps 748 mmHg 88%
    04:00 -9°C° 0 mm 6 mps 747 mmHg 93%
    05:00 -9°C° 0.5 mm 7 mps 747 mmHg 93%
    06:00 -8°C° 0.5 mm 8 mps 747 mmHg 92%
    07:00 -8°C° 0.5 mm 8 mps 747 mmHg 92%
    08:00 -9°C° 0.5 mm 9 mps 747 mmHg 92%
    09:00 -8°C° 0.5 mm 9 mps 746 mmHg 91%
    10:00 -8°C° 0.5 mm 9 mps 746 mmHg 91%
    11:00 -6°C° 0.5 mm 9 mps 746 mmHg 91%
    12:00 -6°C° 0.5 mm 9 mps 746 mmHg 91%
    13:00 -5°C° 0.5 mm 9 mps 746 mmHg 90%
    14:00 -5°C° 0.2 mm 8 mps 746 mmHg 90%
    15:00 -5°C° 0.2 mm 8 mps 746 mmHg 90%
    16:00 -4°C° 0.2 mm 7 mps 746 mmHg 90%
    17:00 -4°C° 0.1 mm 7 mps 746 mmHg 91%
    18:00 -4°C° 0.1 mm 7 mps 746 mmHg 91%
    19:00 -4°C° 0.1 mm 6 mps 747 mmHg 91%
    20:00 -4°C° 0.1 mm 6 mps 747 mmHg 91%
    21:00 -4°C° 0.1 mm 6 mps 747 mmHg 92%
    22:00 -4°C° 0.1 mm 6 mps 747 mmHg 92%
    23:00 -4°C° 0.1 mm 6 mps 747 mmHg 92%

    Tomorrow, 15 December, Saturday

    Time Temperature Precipitation Wind Pressure Humidity
    00:00 -4°C° 0.1 mm 6 mps 747 mmHg 92%
    01:00 -4°C° 0.1 mm 6 mps 747 mmHg 92%
    02:00 -4°C° 0.1 mm 5 mps 747 mmHg 92%
    03:00 -4°C° 0.1 mm 5 mps 748 mmHg 92%
    04:00 -4°C° 0.1 mm 5 mps 748 mmHg 92%
    05:00 -4°C° 0.1 mm 5 mps 748 mmHg 92%
    06:00 -5°C° 0.1 mm 5 mps 748 mmHg 93%
    07:00 -5°C° 0.1 mm 5 mps 748 mmHg 93%
    08:00 -5°C° 0.1 mm 5 mps 748 mmHg 93%
    09:00 -5°C° 0.1 mm 5 mps 749 mmHg 93%
    10:00 -5°C° 0.1 mm 5 mps 749 mmHg 92%
    11:00 -5°C° 0.1 mm 5 mps 749 mmHg 92%
    12:00 -5°C° 0.1 mm 5 mps 749 mmHg 92%
    13:00 -5°C° 0.1 mm 5 mps 749 mmHg 92%
    14:00 -4°C° 0.1 mm 4 mps 749 mmHg 92%
    15:00 -4°C° 0.1 mm 4 mps 749 mmHg 93%
    16:00 -4°C° 0.1 mm 4 mps 749 mmHg 93%
    17:00 -4°C° 0.2 mm 3 mps 749 mmHg 94%
    18:00 -2°C° 0.2 mm 3 mps 750 mmHg 94%
    19:00 -2°C° 0.2 mm 3 mps 750 mmHg 95%
    20:00 -4°C° 0.1 mm 3 mps 750 mmHg 95%
    21:00 -4°C° 0.1 mm 3 mps 750 mmHg 95%
    22:00 -4°C° 0.1 mm 3 mps 750 mmHg 96%
    23:00 -3°C° 0 mm 2 mps 750 mmHg 96%

    Day after tomorrow, 16 December, Sunday

    Time Temperature Precipitation Wind Pressure Humidity
    00:00 -4°C° 0 mm 2 mps 750 mmHg 96%
    01:00 -4°C° 0 mm 2 mps 750 mmHg 96%
    02:00 -4°C° 0.1 mm 2 mps 750 mmHg 96%
    03:00 -3°C° 0.1 mm 1 mps 750 mmHg 96%
    04:00 -3°C° 0.1 mm 1 mps 750 mmHg 96%
    05:00 -4°C° 0 mm 1 mps 751 mmHg 96%
    06:00 -4°C° 0 mm 1 mps 751 mmHg 97%
    07:00 -6°C° 0 mm 1 mps 751 mmHg 97%
    08:00 -6°C° 0 mm 1 mps 751 mmHg 96%
    09:00 -4°C° 0 mm 1 mps 752 mmHg 96%
    10:00 -4°C° 0 mm 1 mps 752 mmHg 95%
    11:00 -4°C° 0 mm 1 mps 752 mmHg 95%
    12:00 -3°C° 0 mm 1 mps 752 mmHg 95%
    13:00 -3°C° 0 mm 1 mps 753 mmHg 94%
    14:00 -5°C° 0 mm 2 mps 753 mmHg 94%
    15:00 -6°C° 0 mm 2 mps 753 mmHg 95%
    16:00 -6°C° 0 mm 2 mps 753 mmHg 95%
    17:00 -6°C° 0 mm 2 mps 753 mmHg 95%
    18:00 -6°C° 0 mm 2 mps 754 mmHg 95%
    19:00 -7°C° 0 mm 3 mps 754 mmHg 95%
    20:00 -7°C° 0 mm 2 mps 754 mmHg 95%
    21:00 -7°C° 0 mm 2 mps 754 mmHg 95%
    22:00 -7°C° 0 mm 2 mps 754 mmHg 94%
    23:00 -8°C° 0 mm 2 mps 755 mmHg 94%

    17 December, Monday

    Time Temperature Precipitation Wind Pressure Humidity
    00:00 -9°C° 0 mm 2 mps 755 mmHg 94%
    01:00 -12°C° 0 mm 3 mps 755 mmHg 94%
    02:00 -10°C° 0 mm 2 mps 755 mmHg 94%
    03:00 -12°C° 0 mm 2 mps 755 mmHg 94%
    04:00 -13°C° 0 mm 2 mps 755 mmHg 95%
    05:00 -13°C° 0 mm 2 mps 755 mmHg 95%
    06:00 -14°C° 0 mm 2 mps 755 mmHg 95%
    07:00 -14°C° 0 mm 2 mps 755 mmHg 96%
    08:00 -13°C° 0 mm 2 mps 755 mmHg 96%
    09:00 -13°C° 0 mm 2 mps 756 mmHg 95%
    10:00 -13°C° 0 mm 2 mps 756 mmHg 95%
    11:00 -12°C° 0 mm 2 mps 756 mmHg 95%
    12:00 -10°C° 0 mm 2 mps 756 mmHg 95%
    13:00 -9°C° 0 mm 2 mps 756 mmHg 95%
    14:00 -8°C° 0 mm 2 mps 756 mmHg 95%
    15:00 -8°C° 0 mm 2 mps 756 mmHg 95%
    16:00 -8°C° 0 mm 2 mps 756 mmHg 95%
    17:00 -9°C° 0 mm 3 mps 756 mmHg 95%
    18:00 -9°C° 0 mm 3 mps 757 mmHg 94%
    19:00 -8°C° 0 mm 3 mps 757 mmHg 94%
    20:00 -9°C° 0 mm 3 mps 757 mmHg 94%
    21:00 -9°C° 0 mm 3 mps 757 mmHg 93%
    22:00 -9°C° 0 mm 3 mps 757 mmHg 93%
    23:00 -10°C° 0 mm 4 mps 757 mmHg 93%

    18 December, Tuesday

    Time Temperature Precipitation Wind Pressure Humidity
    00:00 -10°C° 0 mm 4 mps 757 mmHg 93%
    01:00 -10°C° 0 mm 4 mps 757 mmHg 93%
    02:00 -10°C° 0 mm 4 mps 757 mmHg 93%
    03:00 -10°C° 0 mm 4 mps 757 mmHg 93%
    04:00 -10°C° 0 mm 4 mps 757 mmHg 93%
    05:00 -10°C° 0 mm 4 mps 757 mmHg 93%
    06:00 -10°C° 0 mm 4 mps 757 mmHg 93%
    07:00 -10°C° 0 mm 4 mps 757 mmHg 93%
    08:00 -10°C° 0 mm 4 mps 757 mmHg 93%
    09:00 -9°C° 0 mm 4 mps 757 mmHg 93%
    10:00 -9°C° 0 mm 4 mps 758 mmHg 93%
    11:00 -8°C° 0 mm 4 mps 757 mmHg 94%
    12:00 -8°C° 0 mm 4 mps 757 mmHg 94%
    13:00 -6°C° 0 mm 3 mps 757 mmHg 94%
    14:00 -6°C° 0 mm 3 mps 757 mmHg 95%
    15:00 -6°C° 0 mm 3 mps 757 mmHg 95%
    16:00 -6°C° 0 mm 3 mps 757 mmHg 95%
    17:00 -5°C° 0 mm 3 mps 757 mmHg 95%
    18:00 -5°C° 0 mm 3 mps 757 mmHg 95%
    19:00 -4°C° 0 mm 2 mps 757 mmHg 96%
    20:00 -4°C° 0 mm 2 mps 757 mmHg 96%
    21:00 -4°C° 0 mm 2 mps 757 mmHg 96%
    22:00 -4°C° 0 mm 2 mps 757 mmHg 96%
    23:00 -4°C° 0 mm 2 mps 757 mmHg 95%

    19 December, Wednesday

    Time Temperature Precipitation Wind Pressure Humidity
    00:00 -4°C° 0 mm 2 mps 757 mmHg 95%
    01:00 -5°C° 0 mm 2 mps 757 mmHg 95%
    02:00 -5°C° 0 mm 2 mps 757 mmHg 95%
    03:00 -5°C° 0 mm 2 mps 757 mmHg 94%
    04:00 -6°C° 0 mm 2 mps 757 mmHg 94%
    05:00 -6°C° 0 mm 2 mps 757 mmHg 93%
    06:00 -6°C° 0 mm 2 mps 756 mmHg 93%
    07:00 -7°C° 0 mm 2 mps 756 mmHg 92%
    08:00 -7°C° 0 mm 2 mps 757 mmHg 92%
    09:00 -7°C° 0 mm 2 mps 757 mmHg 91%
    10:00 -8°C° 0 mm 2 mps 757 mmHg 91%
    11:00 -7°C° 0 mm 2 mps 757 mmHg 91%
    12:00 -7°C° 0 mm 2 mps 757 mmHg 90%
    13:00 -7°C° 0 mm 2 mps 757 mmHg 90%
    14:00 -8°C° 0 mm 2 mps 757 mmHg 89%
    15:00 -9°C° 0 mm 2 mps 757 mmHg 89%
    16:00 -9°C° 0 mm 2 mps 757 mmHg 88%
    17:00 -10°C° 0 mm 2 mps 757 mmHg 88%
    18:00 -12°C° 0 mm 2 mps 757 mmHg 88%
    19:00 -12°C° 0 mm 2 mps 757 mmHg 87%
    20:00 -12°C° 0 mm 2 mps 757 mmHg 87%
    21:00 -12°C° 0 mm 2 mps 758 mmHg 88%
    22:00 -12°C° 0 mm 2 mps 758 mmHg 88%
    23:00 -12°C° 0 mm 2 mps 758 mmHg 88%
    Show more